Regional Weather Roundup
Issued by NWS Cleveland, OH

Home | Current Version | Previous Version | Text Only | Print | Product List | Glossary Off
Versions: 1 2 3 4 5 6 7 8 9 10 11 12 13 14 15 16 17 18 19 20 21 22 23 24 25 26 27 28 29 30 31 32 33 34 35 36 37 38 39 40 41 42 43 44 45 46 47 48 49 50

274
ASUS41 KCLE 241400
RWRCLE
OHIO REGIONAL WEATHER ROUNDUP
NATIONAL WEATHER SERVICE WILMINGTON, OH
1000 AM EDT SUN SEP 24 2017

NOTE: "FAIR" INDICATES FEW OR NO CLOUDS BELOW 12,000 FEET WITH NO
SIGNIFICANT WEATHER AND/OR OBSTRUCTIONS TO VISIBILITY.

OHZ001>008-015>018-024>027-034-035-043-044-241500-
   NORTHWEST OHIO

CITY           SKY/WX    TMP DP  RH WIND       PRES   REMARKS
DEFIANCE       FAIR      73  62  68 NE3       30.16S
FINDLAY        FAIR      78  62  57 E3        30.16R
TOLEDO EXPRESS FAIR      75  65  70 VRB3      30.17R
TOLEDO EXEC    FAIR      76  66  71 E6        30.17S
LIMA           FAIR      76  63  64 E5        30.16S
$$

OHZ009>014-019>023-028>033-038-089-241500-
   NORTHEAST OHIO

CITY           SKY/WX    TMP DP  RH WIND       PRES   REMARKS
CLE-HOPKINS    FAIR      81  64  56 CALM      30.20R
CLE-LAKEFRONT  FAIR      79  63  57 CALM      30.17S
CUY CO. ARPT   SUNNY     81  66  61 SE8       30.20S
LORAIN-ELYRIA  FAIR      75  60  59 S7        30.19S
ASHTABULA      FAIR      78  68  71 SE3       30.21S
AKRON-CANTON   FAIR      79  63  57 E6        30.20R
WOOSTER        NOT AVBL
MANSFIELD      FAIR      76  60  57 E8        30.20R
YOUNGSTOWN     FAIR      75  66  73 SE6       30.21R
$$

OHZ042-051>053-060>062-070>072-077>081-241500-
  SOUTHWEST OHIO

CITY           SKY/WX    TMP DP  RH WIND       PRES   REMARKS
CINC-COVINGTON FAIR      74  63  68 E8        30.12S
CINC-LUNKEN    FAIR      71  64  78 NE3       30.13S
HAMILTON       FAIR      73  64  73 CALM      30.14S
DAYTON         NOT AVBL
WRIGHT-PAT AFB FAIR      73  62  68 NE5       30.14S
DAYTON GENERAL FAIR      74  60  61 SE6       30.13S
WILMINGTON     FAIR      72  62  71 E8        30.15S
$$

OHZ036-037-039>041-045>050-054>059-063>069-073>076-082>088-241500-
  CENTRAL AND SOUTHEAST OHIO

CITY           SKY/WX    TMP DP  RH WIND       PRES   REMARKS
COLUMBUS       FAIR      77  59  53 E7        30.16R
OSU AIRPORT    FAIR      76  60  57 SE7       30.16R
BOLTON FIELD   SUNNY     73  61  64 SE5       30.17R
RICKENBACK AFB NOT AVBL
NEWARK         FAIR      73  62  68 CALM      30.17S
MARION         FAIR      77  58  51 SE7       30.17S
LANCASTER      FAIR      71  63  75 CALM      30.17S
ZANESVILLE     FAIR      73  61  65 CALM      30.18R
NEW PHILLY     FAIR      73  64  73 CALM      30.19S
$$




USA.gov is the U.S. government's official web portal to all federal, state and local government web resources and services.